Year,Month,Day,Hour,Minute,Value (Times are PST for temperature in C)
2011,09,04,00,00,12.40
2011,09,04,00,01,12.40
2011,09,04,00,02,12.40
2011,09,04,00,03,12.40
2011,09,04,00,04,12.40
2011,09,04,00,05,12.30
2011,09,04,00,06,12.30
2011,09,04,00,07,12.30
2011,09,04,00,08,12.30
2011,09,04,00,09,12.30
2011,09,04,00,10,12.30
2011,09,04,00,11,12.30
2011,09,04,00,12,12.30
2011,09,04,00,13,12.30
2011,09,04,00,14,12.30
2011,09,04,00,15,12.30
2011,09,04,00,16,12.30
2011,09,04,00,17,12.30
2011,09,04,00,18,12.30
2011,09,04,00,19,12.30
2011,09,04,00,20,12.20
2011,09,04,00,21,12.20
2011,09,04,00,22,12.20
2011,09,04,00,23,12.20
2011,09,04,00,24,12.20
2011,09,04,00,25,12.20
2011,09,04,00,26,12.20
2011,09,04,00,27,12.20
2011,09,04,00,28,12.20
2011,09,04,00,29,12.20
2011,09,04,00,30,12.20
2011,09,04,00,31,12.20
2011,09,04,00,32,12.20
2011,09,04,00,33,12.20
2011,09,04,00,34,12.20
2011,09,04,00,35,12.20
2011,09,04,00,36,12.10
2011,09,04,00,37,12.20
2011,09,04,00,38,12.10
2011,09,04,00,39,12.10
2011,09,04,00,40,12.10
2011,09,04,00,41,12.10
2011,09,04,00,42,12.10
2011,09,04,00,43,12.10
2011,09,04,00,44,12.10
2011,09,04,00,45,12.00
2011,09,04,00,46,12.00
2011,09,04,00,47,12.00
2011,09,04,00,48,12.00
2011,09,04,00,49,12.00
2011,09,04,00,50,12.00
2011,09,04,00,51,11.90
2011,09,04,00,52,11.90
2011,09,04,00,53,11.90
2011,09,04,00,54,11.90
2011,09,04,00,55,11.90
2011,09,04,00,56,11.90
2011,09,04,00,57,11.90
2011,09,04,00,58,11.90
2011,09,04,00,59,11.90
2011,09,04,01,00,11.90
2011,09,04,01,01,11.90
2011,09,04,01,02,11.90
2011,09,04,01,03,11.80
2011,09,04,01,04,11.80
2011,09,04,01,05,11.80
2011,09,04,01,06,11.80
2011,09,04,01,07,11.80
2011,09,04,01,08,11.80
2011,09,04,01,09,11.80
2011,09,04,01,10,11.80
2011,09,04,01,11,11.80
2011,09,04,01,12,11.80
2011,09,04,01,13,11.80
2011,09,04,01,14,11.70
2011,09,04,01,15,11.70
2011,09,04,01,16,11.70
2011,09,04,01,17,11.70
2011,09,04,01,18,11.70
2011,09,04,01,19,11.70
2011,09,04,01,20,11.70
2011,09,04,01,21,11.70
2011,09,04,01,22,11.70
2011,09,04,01,23,11.70
2011,09,04,01,24,11.70
2011,09,04,01,25,11.70
2011,09,04,01,26,11.70
2011,09,04,01,27,11.70
2011,09,04,01,28,11.70
2011,09,04,01,29,11.70
2011,09,04,01,30,11.70
2011,09,04,01,31,11.70
2011,09,04,01,32,11.70
2011,09,04,01,33,11.70
2011,09,04,01,34,11.70
2011,09,04,01,35,11.70
2011,09,04,01,36,11.70
2011,09,04,01,37,11.70
2011,09,04,01,38,11.60
2011,09,04,01,39,11.60
2011,09,04,01,40,11.60
2011,09,04,01,41,11.60
2011,09,04,01,42,11.60
2011,09,04,01,43,11.60
2011,09,04,01,44,11.60
2011,09,04,01,45,11.60
2011,09,04,01,46,11.60
2011,09,04,01,47,11.60
2011,09,04,01,48,11.60
2011,09,04,01,49,11.60
2011,09,04,01,50,11.60
2011,09,04,01,51,11.60
2011,09,04,01,52,11.50
2011,09,04,01,53,11.50
2011,09,04,01,54,11.50
2011,09,04,01,55,11.50
2011,09,04,01,56,11.50
2011,09,04,01,57,11.50
2011,09,04,01,58,11.50
2011,09,04,01,59,11.50
2011,09,04,02,00,11.50
2011,09,04,02,01,11.50
2011,09,04,02,02,11.50
2011,09,04,02,03,11.50
2011,09,04,02,04,11.40
2011,09,04,02,05,11.40
2011,09,04,02,06,11.40
2011,09,04,02,07,11.40
2011,09,04,02,08,11.40
2011,09,04,02,09,11.40
2011,09,04,02,10,11.40
2011,09,04,02,11,11.40
2011,09,04,02,12,11.40
2011,09,04,02,13,11.40
2011,09,04,02,14,11.40
2011,09,04,02,15,11.30
2011,09,04,02,16,11.30
2011,09,04,02,17,11.30
2011,09,04,02,18,11.30
2011,09,04,02,19,11.30
2011,09,04,02,20,11.30
2011,09,04,02,21,11.30
2011,09,04,02,22,11.30
2011,09,04,02,23,11.30
2011,09,04,02,24,11.30
2011,09,04,02,25,11.30
2011,09,04,02,26,11.20
2011,09,04,02,27,11.20
2011,09,04,02,28,11.20
2011,09,04,02,29,11.20
2011,09,04,02,30,11.20
2011,09,04,02,31,11.20
2011,09,04,02,32,11.20
2011,09,04,02,33,11.20
2011,09,04,02,34,11.20
2011,09,04,02,35,11.20
2011,09,04,02,36,11.20
2011,09,04,02,37,11.20
2011,09,04,02,38,11.20
2011,09,04,02,39,11.20
2011,09,04,02,40,11.20
2011,09,04,02,41,11.10
2011,09,04,02,42,11.10
2011,09,04,02,43,11.10
2011,09,04,02,44,11.10
2011,09,04,02,45,11.10
2011,09,04,02,46,11.10
2011,09,04,02,47,11.10
2011,09,04,02,48,11.10
2011,09,04,02,49,11.10
2011,09,04,02,50,11.10
2011,09,04,02,51,11.10
2011,09,04,02,52,11.10
2011,09,04,02,53,11.10
2011,09,04,02,54,11.00
2011,09,04,02,55,11.00
2011,09,04,02,56,11.00
2011,09,04,02,57,11.00
2011,09,04,02,58,11.00
2011,09,04,02,59,11.00
2011,09,04,03,00,11.00
2011,09,04,03,01,11.00
2011,09,04,03,02,11.00
2011,09,04,03,03,11.00
2011,09,04,03,04,11.00
2011,09,04,03,05,10.90
2011,09,04,03,06,10.90
2011,09,04,03,07,10.90
2011,09,04,03,08,10.90
2011,09,04,03,09,10.90
2011,09,04,03,10,10.90
2011,09,04,03,11,10.90
2011,09,04,03,12,10.90
2011,09,04,03,13,10.90
2011,09,04,03,14,10.90
2011,09,04,03,15,10.80
2011,09,04,03,16,10.80
2011,09,04,03,17,10.80
2011,09,04,03,18,10.80
2011,09,04,03,19,10.80
2011,09,04,03,20,10.80
2011,09,04,03,21,10.80
2011,09,04,03,22,10.80
2011,09,04,03,23,10.80
2011,09,04,03,24,10.80
2011,09,04,03,25,10.80
2011,09,04,03,26,10.80
2011,09,04,03,27,10.80
2011,09,04,03,28,10.80
2011,09,04,03,29,10.80
2011,09,04,03,30,10.80
2011,09,04,03,31,10.80
2011,09,04,03,32,10.80
2011,09,04,03,33,10.70
2011,09,04,03,34,10.70
2011,09,04,03,35,10.70
2011,09,04,03,36,10.70
2011,09,04,03,37,10.70
2011,09,04,03,38,10.70
2011,09,04,03,39,10.70
2011,09,04,03,40,10.70
2011,09,04,03,41,10.70
2011,09,04,03,42,10.70
2011,09,04,03,43,10.70
2011,09,04,03,44,10.70
2011,09,04,03,45,10.70
2011,09,04,03,46,10.70
2011,09,04,03,47,10.70
2011,09,04,03,48,10.70
2011,09,04,03,49,10.70
2011,09,04,03,50,10.70
2011,09,04,03,51,10.70
2011,09,04,03,52,10.70
2011,09,04,03,53,10.70
2011,09,04,03,54,10.70
2011,09,04,03,55,10.70
2011,09,04,03,56,10.60
2011,09,04,03,57,10.60
2011,09,04,03,58,10.60
2011,09,04,03,59,10.60
2011,09,04,04,00,10.60
2011,09,04,04,01,10.60
2011,09,04,04,02,10.60
2011,09,04,04,03,10.60
2011,09,04,04,04,10.60
2011,09,04,04,05,10.50
2011,09,04,04,06,10.50
2011,09,04,04,07,10.50
2011,09,04,04,08,10.50
2011,09,04,04,09,10.50
2011,09,04,04,10,10.50
2011,09,04,04,11,10.50
2011,09,04,04,12,10.50
2011,09,04,04,13,10.50
2011,09,04,04,14,10.50
2011,09,04,04,15,10.50
2011,09,04,04,16,10.50
2011,09,04,04,17,10.50
2011,09,04,04,18,10.40
2011,09,04,04,19,10.40
2011,09,04,04,20,10.40
2011,09,04,04,21,10.40
2011,09,04,04,22,10.40
2011,09,04,04,23,10.40
2011,09,04,04,24,10.40
2011,09,04,04,25,10.40
2011,09,04,04,26,10.40
2011,09,04,04,27,10.40
2011,09,04,04,28,10.40
2011,09,04,04,29,10.40
2011,09,04,04,30,10.40
2011,09,04,04,31,10.40
2011,09,04,04,32,10.40
2011,09,04,04,33,10.40
2011,09,04,04,34,10.40
2011,09,04,04,35,10.40
2011,09,04,04,36,10.40
2011,09,04,04,37,10.40
2011,09,04,04,38,10.40
2011,09,04,04,39,10.40
2011,09,04,04,40,10.40
2011,09,04,04,41,10.40
2011,09,04,04,42,10.40
2011,09,04,04,43,10.40
2011,09,04,04,44,10.30
2011,09,04,04,45,10.30
2011,09,04,04,46,10.30
2011,09,04,04,47,10.30
2011,09,04,04,48,10.30
2011,09,04,04,49,10.30
2011,09,04,04,50,10.30
2011,09,04,04,51,10.30
2011,09,04,04,52,10.30
2011,09,04,04,53,10.30
2011,09,04,04,54,10.20
2011,09,04,04,55,10.20
2011,09,04,04,56,10.20
2011,09,04,04,57,10.20
2011,09,04,04,58,10.20
2011,09,04,04,59,10.20
2011,09,04,05,00,10.20
2011,09,04,05,01,10.20
2011,09,04,05,02,10.20
2011,09,04,05,03,10.20
2011,09,04,05,04,10.20
2011,09,04,05,05,10.20
2011,09,04,05,06,10.20
2011,09,04,05,07,10.20
2011,09,04,05,08,10.20
2011,09,04,05,09,10.20
2011,09,04,05,10,10.30
2011,09,04,05,11,10.30
2011,09,04,05,12,10.30
2011,09,04,05,13,10.30
2011,09,04,05,14,10.30
2011,09,04,05,15,10.20
2011,09,04,05,16,10.20
2011,09,04,05,17,10.20
2011,09,04,05,18,10.20
2011,09,04,05,19,10.20
2011,09,04,05,20,10.20
2011,09,04,05,21,10.10
2011,09,04,05,22,10.10
2011,09,04,05,23,10.10
2011,09,04,05,24,10.10
2011,09,04,05,25,10.10
2011,09,04,05,26,10.10
2011,09,04,05,27,10.10
2011,09,04,05,28,10.00
2011,09,04,05,29,10.00
2011,09,04,05,30,10.00
2011,09,04,05,31,10.00
2011,09,04,05,32,10.00
2011,09,04,05,33,10.00
2011,09,04,05,34,10.00
2011,09,04,05,35,10.00
2011,09,04,05,36,10.00
2011,09,04,05,37,9.90
2011,09,04,05,38,9.90
2011,09,04,05,39,9.90
2011,09,04,05,40,9.90
2011,09,04,05,41,9.90
2011,09,04,05,42,9.90
2011,09,04,05,43,9.90
2011,09,04,05,44,9.90
2011,09,04,05,45,9.90
2011,09,04,05,46,9.90
2011,09,04,05,47,9.90
2011,09,04,05,48,9.90
2011,09,04,05,49,9.80
2011,09,04,05,50,9.80
2011,09,04,05,51,9.80
2011,09,04,05,52,9.80
2011,09,04,05,53,9.80
2011,09,04,05,54,9.80
2011,09,04,05,55,9.80
2011,09,04,05,56,9.80
2011,09,04,05,57,9.80
2011,09,04,05,58,9.80
2011,09,04,05,59,9.80
2011,09,04,06,00,9.70
2011,09,04,06,01,9.70
2011,09,04,06,02,9.70
2011,09,04,06,03,9.70
2011,09,04,06,04,9.70
2011,09,04,06,05,9.70
2011,09,04,06,06,9.70
2011,09,04,06,07,9.70
2011,09,04,06,08,9.70
2011,09,04,06,09,9.70
2011,09,04,06,10,9.70
2011,09,04,06,11,9.70
2011,09,04,06,12,9.60
2011,09,04,06,13,9.60
2011,09,04,06,14,9.60
2011,09,04,06,15,9.60
2011,09,04,06,16,9.60
2011,09,04,06,17,9.60
2011,09,04,06,18,9.60
2011,09,04,06,19,9.60
2011,09,04,06,20,9.60
2011,09,04,06,21,9.60
2011,09,04,06,22,9.60
2011,09,04,06,23,9.60
2011,09,04,06,24,9.60
2011,09,04,06,25,9.60
2011,09,04,06,26,9.60
2011,09,04,06,27,9.50
2011,09,04,06,28,9.50
2011,09,04,06,29,9.50
2011,09,04,06,30,9.50
2011,09,04,06,31,9.50
2011,09,04,06,32,9.50
2011,09,04,06,33,9.50
2011,09,04,06,34,9.50
2011,09,04,06,35,9.50
2011,09,04,06,36,9.50
2011,09,04,06,37,9.50
2011,09,04,06,38,9.50
2011,09,04,06,39,9.50
2011,09,04,06,40,9.50
2011,09,04,06,41,9.40
2011,09,04,06,42,9.40
2011,09,04,06,43,9.40
2011,09,04,06,44,9.40
2011,09,04,06,45,9.40
2011,09,04,06,46,9.40
2011,09,04,06,47,9.40
2011,09,04,06,48,9.40
2011,09,04,06,49,9.40
2011,09,04,06,50,9.40
2011,09,04,06,51,9.40
2011,09,04,06,52,9.40
2011,09,04,06,53,9.40
2011,09,04,06,54,9.40
2011,09,04,06,55,9.40
2011,09,04,06,56,9.40
2011,09,04,06,57,9.40
2011,09,04,06,58,9.40
2011,09,04,06,59,9.50
2011,09,04,07,00,9.40
2011,09,04,07,01,9.50
2011,09,04,07,02,9.50
2011,09,04,07,03,9.50
2011,09,04,07,04,9.50
2011,09,04,07,05,9.50
2011,09,04,07,06,9.50
2011,09,04,07,07,9.50
2011,09,04,07,08,9.50
2011,09,04,07,09,9.50
2011,09,04,07,10,9.50
2011,09,04,07,11,9.50
2011,09,04,07,12,9.50
2011,09,04,07,13,9.50
2011,09,04,07,14,9.50
2011,09,04,07,15,9.50
2011,09,04,07,16,9.50
2011,09,04,07,17,9.50
2011,09,04,07,18,9.50
2011,09,04,07,19,9.60
2011,09,04,07,20,9.60
2011,09,04,07,21,9.60
2011,09,04,07,22,9.60
2011,09,04,07,23,9.60
2011,09,04,07,24,9.60
2011,09,04,07,25,9.60
2011,09,04,07,26,9.60
2011,09,04,07,27,9.70
2011,09,04,07,28,9.70
2011,09,04,07,29,9.70
2011,09,04,07,30,9.70
2011,09,04,07,31,9.70
2011,09,04,07,32,9.70
2011,09,04,07,33,9.70
2011,09,04,07,34,9.80
2011,09,04,07,35,9.80
2011,09,04,07,36,9.80
2011,09,04,07,37,9.80
2011,09,04,07,38,9.80
2011,09,04,07,39,9.90
2011,09,04,07,40,9.90
2011,09,04,07,41,9.90
2011,09,04,07,42,9.90
2011,09,04,07,43,9.90
2011,09,04,07,44,10.00
2011,09,04,07,45,10.00
2011,09,04,07,46,10.00
2011,09,04,07,47,10.10
2011,09,04,07,48,10.10
2011,09,04,07,49,10.20
2011,09,04,07,50,10.20
2011,09,04,07,51,10.20
2011,09,04,07,52,10.30
2011,09,04,07,53,10.30
2011,09,04,07,54,10.30
2011,09,04,07,55,10.40
2011,09,04,07,56,10.40
2011,09,04,07,57,10.40
2011,09,04,07,58,10.50
2011,09,04,07,59,10.50
2011,09,04,08,00,10.60
2011,09,04,08,01,10.60
2011,09,04,08,02,10.70
2011,09,04,08,03,10.70
2011,09,04,08,04,10.70
2011,09,04,08,05,10.80
2011,09,04,08,06,10.80
2011,09,04,08,07,10.80
2011,09,04,08,08,10.90
2011,09,04,08,09,10.90
2011,09,04,08,10,11.00
2011,09,04,08,11,11.00
2011,09,04,08,12,11.10
2011,09,04,08,13,11.10
2011,09,04,08,14,11.20
2011,09,04,08,15,11.20
2011,09,04,08,16,11.20
2011,09,04,08,17,11.30
2011,09,04,08,18,11.30
2011,09,04,08,19,11.40
2011,09,04,08,20,11.60
2011,09,04,08,21,11.70
2011,09,04,08,22,11.80
2011,09,04,08,23,11.90
2011,09,04,08,24,12.00
2011,09,04,08,25,12.20
2011,09,04,08,26,12.30
2011,09,04,08,27,12.40
2011,09,04,08,28,12.50
2011,09,04,08,29,12.70
2011,09,04,08,30,12.80
2011,09,04,08,31,12.90
2011,09,04,08,32,13.00
2011,09,04,08,33,13.10
2011,09,04,08,34,13.20
2011,09,04,08,35,13.30
2011,09,04,08,36,13.40
2011,09,04,08,37,13.60
2011,09,04,08,38,13.70
2011,09,04,08,39,13.80
2011,09,04,08,40,13.90
2011,09,04,08,41,14.00
2011,09,04,08,42,14.10
2011,09,04,08,43,14.20
2011,09,04,08,44,14.30
2011,09,04,08,45,14.40
2011,09,04,08,46,14.50
2011,09,04,08,47,14.60
2011,09,04,08,48,14.70
2011,09,04,08,49,14.80
2011,09,04,08,50,14.90
2011,09,04,08,51,15.00
2011,09,04,08,52,15.10
2011,09,04,08,53,15.20
2011,09,04,08,54,15.40
2011,09,04,08,55,15.50
2011,09,04,08,56,15.50
2011,09,04,08,57,15.60
2011,09,04,08,58,15.70
2011,09,04,08,59,15.80
2011,09,04,09,00,15.80
2011,09,04,09,01,15.90
2011,09,04,09,02,16.00
2011,09,04,09,03,16.10
2011,09,04,09,04,16.20
2011,09,04,09,05,16.20
2011,09,04,09,06,16.30
2011,09,04,09,07,16.30
2011,09,04,09,08,16.40
2011,09,04,09,09,16.40
2011,09,04,09,10,16.50
2011,09,04,09,11,16.60
2011,09,04,09,12,16.60
2011,09,04,09,13,16.70
2011,09,04,09,14,16.70
2011,09,04,09,15,16.80
2011,09,04,09,16,16.80
2011,09,04,09,17,16.90
2011,09,04,09,18,16.90
2011,09,04,09,19,16.90
2011,09,04,09,20,17.00
2011,09,04,09,21,17.00
2011,09,04,09,22,17.00
2011,09,04,09,23,17.10
2011,09,04,09,24,17.10
2011,09,04,09,25,17.10
2011,09,04,09,26,17.10
2011,09,04,09,27,17.10
2011,09,04,09,28,17.20
2011,09,04,09,29,17.20
2011,09,04,09,30,17.20
2011,09,04,09,31,17.20
2011,09,04,09,32,17.20
2011,09,04,09,33,17.30
2011,09,04,09,34,17.30
2011,09,04,09,35,17.30
2011,09,04,09,36,17.30
2011,09,04,09,37,17.40
2011,09,04,09,38,17.40
2011,09,04,09,39,17.40
2011,09,04,09,40,17.50
2011,09,04,09,41,17.50
2011,09,04,09,42,17.60
2011,09,04,09,43,17.60
2011,09,04,09,44,17.60
2011,09,04,09,45,17.70
2011,09,04,09,46,17.70
2011,09,04,09,47,17.70
2011,09,04,09,48,17.80
2011,09,04,09,49,17.80
2011,09,04,09,50,17.80
2011,09,04,09,51,17.90
2011,09,04,09,52,17.90
2011,09,04,09,53,17.90
2011,09,04,09,54,18.00
2011,09,04,09,55,18.00
2011,09,04,09,56,17.90
2011,09,04,09,57,18.00
2011,09,04,09,58,17.90
2011,09,04,09,59,18.00
2011,09,04,10,00,18.00
2011,09,04,10,01,18.00
2011,09,04,10,02,18.00
2011,09,04,10,03,18.10
2011,09,04,10,04,18.10
2011,09,04,10,05,18.10
2011,09,04,10,06,18.20
2011,09,04,10,07,18.20
2011,09,04,10,08,18.20
2011,09,04,10,09,18.20
2011,09,04,10,10,18.20
2011,09,04,10,11,18.20
2011,09,04,10,12,18.20
2011,09,04,10,13,18.20
2011,09,04,10,14,18.30
2011,09,04,10,15,18.30
2011,09,04,10,16,18.30
2011,09,04,10,17,18.30
2011,09,04,10,18,18.30
2011,09,04,10,19,18.30
2011,09,04,10,20,18.30
2011,09,04,10,21,18.30
2011,09,04,10,22,18.30
2011,09,04,10,23,18.30
2011,09,04,10,24,18.30
2011,09,04,10,25,18.30
2011,09,04,10,26,18.30
2011,09,04,10,27,18.30
2011,09,04,10,28,18.30
2011,09,04,10,29,18.30
2011,09,04,10,30,18.30
2011,09,04,10,31,18.30
2011,09,04,10,32,18.30
2011,09,04,10,33,18.30
2011,09,04,10,34,18.30
2011,09,04,10,35,18.40
2011,09,04,10,36,18.40
2011,09,04,10,37,18.50
2011,09,04,10,38,18.60
2011,09,04,10,39,18.60
2011,09,04,10,40,18.70
2011,09,04,10,41,18.70
2011,09,04,10,42,18.70
2011,09,04,10,43,18.80
2011,09,04,10,44,18.80
2011,09,04,10,45,18.80
2011,09,04,10,46,18.80
2011,09,04,10,47,18.80
2011,09,04,10,48,18.80
2011,09,04,10,49,18.80
2011,09,04,10,50,18.80
2011,09,04,10,51,18.80
2011,09,04,10,52,18.80
2011,09,04,10,53,18.80
2011,09,04,10,54,18.80
2011,09,04,10,55,18.80
2011,09,04,10,56,18.80
2011,09,04,10,57,18.80
2011,09,04,10,58,18.80
2011,09,04,10,59,18.80
2011,09,04,11,00,18.90
2011,09,04,11,01,18.90
2011,09,04,11,02,18.90
2011,09,04,11,03,18.90
2011,09,04,11,04,18.90
2011,09,04,11,05,19.00
2011,09,04,11,06,19.10
2011,09,04,11,07,19.10
2011,09,04,11,08,19.10
2011,09,04,11,09,19.10
2011,09,04,11,10,19.10
2011,09,04,11,11,19.20
2011,09,04,11,12,19.20
2011,09,04,11,13,19.30
2011,09,04,11,14,19.40
2011,09,04,11,15,19.40
2011,09,04,11,16,19.50
2011,09,04,11,17,19.50
2011,09,04,11,18,19.50
2011,09,04,11,19,19.50
2011,09,04,11,20,19.50
2011,09,04,11,21,19.40
2011,09,04,11,22,19.40
2011,09,04,11,23,19.30
2011,09,04,11,24,19.30
2011,09,04,11,25,19.30
2011,09,04,11,26,19.20
2011,09,04,11,27,19.20
2011,09,04,11,28,19.20
2011,09,04,11,29,19.20
2011,09,04,11,30,19.30
2011,09,04,11,31,19.30
2011,09,04,11,32,19.30
2011,09,04,11,33,19.40
2011,09,04,11,34,19.50
2011,09,04,11,35,19.50
2011,09,04,11,36,19.60
2011,09,04,11,37,19.70
2011,09,04,11,38,19.80
2011,09,04,11,39,19.80
2011,09,04,11,40,19.80
2011,09,04,11,41,19.70
2011,09,04,11,42,19.70
2011,09,04,11,43,19.70
2011,09,04,11,44,19.70
2011,09,04,11,45,19.70
2011,09,04,11,46,19.70
2011,09,04,11,47,19.70
2011,09,04,11,48,19.70
2011,09,04,11,49,19.70
2011,09,04,11,50,19.70
2011,09,04,11,51,19.70
2011,09,04,11,52,19.70
2011,09,04,11,53,19.70
2011,09,04,11,54,19.70
2011,09,04,11,55,19.70
2011,09,04,11,56,19.70
2011,09,04,11,57,19.70
2011,09,04,11,58,19.80
2011,09,04,11,59,19.80
2011,09,04,12,00,19.90
2011,09,04,12,01,19.90
2011,09,04,12,02,19.90
2011,09,04,12,03,19.90
2011,09,04,12,04,19.90
2011,09,04,12,05,19.90
2011,09,04,12,06,19.90
2011,09,04,12,07,19.90
2011,09,04,12,08,19.90
2011,09,04,12,09,19.90
2011,09,04,12,10,19.90
2011,09,04,12,11,19.90
2011,09,04,12,12,19.90
2011,09,04,12,13,20.00
2011,09,04,12,14,20.00
2011,09,04,12,15,20.10
2011,09,04,12,16,20.10
2011,09,04,12,17,20.20
2011,09,04,12,18,20.30
2011,09,04,12,19,20.40
2011,09,04,12,20,20.50
2011,09,04,12,21,20.50
2011,09,04,12,22,20.60
2011,09,04,12,23,20.70
2011,09,04,12,24,20.70
2011,09,04,12,25,20.70
2011,09,04,12,26,20.80
2011,09,04,12,27,20.80
2011,09,04,12,28,20.80
2011,09,04,12,29,20.80
2011,09,04,12,30,20.80
2011,09,04,12,31,20.80
2011,09,04,12,32,20.80
2011,09,04,12,33,20.80
2011,09,04,12,34,20.80
2011,09,04,12,35,20.80
2011,09,04,12,36,20.80
2011,09,04,12,37,20.90
2011,09,04,12,38,20.90
2011,09,04,12,39,21.00
2011,09,04,12,40,21.10
2011,09,04,12,41,21.10
2011,09,04,12,42,21.10
2011,09,04,12,43,21.20
2011,09,04,12,44,21.20
2011,09,04,12,45,21.20
2011,09,04,12,46,21.20
2011,09,04,12,47,21.20
2011,09,04,12,48,21.20
2011,09,04,12,49,21.20
2011,09,04,12,50,21.20
2011,09,04,12,51,21.20
2011,09,04,12,52,21.30
2011,09,04,12,53,21.30
2011,09,04,12,54,21.30
2011,09,04,12,55,21.40
2011,09,04,12,56,21.50
2011,09,04,12,57,21.60
2011,09,04,12,58,21.70
2011,09,04,12,59,21.70
2011,09,04,13,00,21.80
2011,09,04,13,01,21.80
2011,09,04,13,02,21.90
2011,09,04,13,03,21.90
2011,09,04,13,04,22.00
2011,09,04,13,05,22.00
2011,09,04,13,06,22.00
2011,09,04,13,07,22.00
2011,09,04,13,08,21.90
2011,09,04,13,09,21.90
2011,09,04,13,10,22.00
2011,09,04,13,11,22.00
2011,09,04,13,12,22.00
2011,09,04,13,13,22.10
2011,09,04,13,14,22.10
2011,09,04,13,15,22.10
2011,09,04,13,16,22.10
2011,09,04,13,17,22.20
2011,09,04,13,18,22.20
2011,09,04,13,19,22.30
2011,09,04,13,20,22.30
2011,09,04,13,21,22.40
2011,09,04,13,22,22.50
2011,09,04,13,23,22.50
2011,09,04,13,24,22.50
2011,09,04,13,25,22.60
2011,09,04,13,26,22.70
2011,09,04,13,27,22.70
2011,09,04,13,28,22.70
2011,09,04,13,29,22.80
2011,09,04,13,30,22.80
2011,09,04,13,31,22.80
2011,09,04,13,32,22.80
2011,09,04,13,33,22.80
2011,09,04,13,34,22.80
2011,09,04,13,35,22.80
2011,09,04,13,36,22.80
2011,09,04,13,37,22.80
2011,09,04,13,38,22.80
2011,09,04,13,39,22.80
2011,09,04,13,40,22.80
2011,09,04,13,41,22.90
2011,09,04,13,42,22.90
2011,09,04,13,43,23.00
2011,09,04,13,44,23.00
2011,09,04,13,45,23.20
2011,09,04,13,46,23.30
2011,09,04,13,47,23.30
2011,09,04,13,48,23.40
2011,09,04,13,49,23.40
2011,09,04,13,50,23.40
2011,09,04,13,51,23.50
2011,09,04,13,52,23.50
2011,09,04,13,53,23.60
2011,09,04,13,54,23.60
2011,09,04,13,55,23.60
2011,09,04,13,56,23.70
2011,09,04,13,57,23.70
2011,09,04,13,58,23.70
2011,09,04,13,59,23.70
2011,09,04,14,00,23.70
2011,09,04,14,01,23.70
2011,09,04,14,02,23.70
2011,09,04,14,03,23.70
2011,09,04,14,04,23.70
2011,09,04,14,05,23.70
2011,09,04,14,06,23.80
2011,09,04,14,07,23.80
2011,09,04,14,08,23.80
2011,09,04,14,09,23.80
2011,09,04,14,10,23.80
2011,09,04,14,11,23.70
2011,09,04,14,12,23.70
2011,09,04,14,13,23.60
2011,09,04,14,14,23.60
2011,09,04,14,15,23.60
2011,09,04,14,16,23.60
2011,09,04,14,17,23.60
2011,09,04,14,18,23.60
2011,09,04,14,19,23.60
2011,09,04,14,20,23.70
2011,09,04,14,21,23.70
2011,09,04,14,22,23.80
2011,09,04,14,23,23.80
2011,09,04,14,24,23.80
2011,09,04,14,25,23.80
2011,09,04,14,26,23.80
2011,09,04,14,27,23.80
2011,09,04,14,28,23.80
2011,09,04,14,29,23.80
2011,09,04,14,30,23.70
2011,09,04,14,31,23.70
2011,09,04,14,32,23.70
2011,09,04,14,33,23.70
2011,09,04,14,34,23.70
2011,09,04,14,35,23.70
2011,09,04,14,36,23.70
2011,09,04,14,37,23.70
2011,09,04,14,38,23.70
2011,09,04,14,39,23.70
2011,09,04,14,40,23.70
2011,09,04,14,41,23.70
2011,09,04,14,42,23.70
2011,09,04,14,43,23.70
2011,09,04,14,44,23.70
2011,09,04,14,45,23.70
2011,09,04,14,46,23.70
2011,09,04,14,47,23.70
2011,09,04,14,48,23.70
2011,09,04,14,49,23.70
2011,09,04,14,50,23.70
2011,09,04,14,51,23.70
2011,09,04,14,52,23.80
2011,09,04,14,53,23.80
2011,09,04,14,54,23.80
2011,09,04,14,55,23.80
2011,09,04,14,56,23.80
2011,09,04,14,57,23.80
2011,09,04,14,58,23.80
2011,09,04,14,59,23.80
2011,09,04,15,00,23.80
2011,09,04,15,01,23.80
2011,09,04,15,02,23.90
2011,09,04,15,03,23.90
2011,09,04,15,04,23.90
2011,09,04,15,05,23.90
2011,09,04,15,06,23.90
2011,09,04,15,07,24.00
2011,09,04,15,08,24.00
2011,09,04,15,09,24.00
2011,09,04,15,10,24.00
2011,09,04,15,11,24.10
2011,09,04,15,12,24.10
2011,09,04,15,13,24.10
2011,09,04,15,14,24.20
2011,09,04,15,15,24.20
2011,09,04,15,16,24.20
2011,09,04,15,17,24.20
2011,09,04,15,18,24.20
2011,09,04,15,19,24.20
2011,09,04,15,20,24.20
2011,09,04,15,21,24.20
2011,09,04,15,22,24.20
2011,09,04,15,23,24.20
2011,09,04,15,24,24.20
2011,09,04,15,25,24.20
2011,09,04,15,26,24.20
2011,09,04,15,27,24.20
2011,09,04,15,28,24.20
2011,09,04,15,29,24.20
2011,09,04,15,30,24.30
2011,09,04,15,31,24.40
2011,09,04,15,32,24.40
2011,09,04,15,33,24.50
2011,09,04,15,34,24.60
2011,09,04,15,35,24.70
2011,09,04,15,36,24.70
2011,09,04,15,37,24.70
2011,09,04,15,38,24.70
2011,09,04,15,39,24.60
2011,09,04,15,40,24.60
2011,09,04,15,41,24.50
2011,09,04,15,42,24.50
2011,09,04,15,43,24.50
2011,09,04,15,44,24.40
2011,09,04,15,45,24.40
2011,09,04,15,46,24.40
2011,09,04,15,47,24.40
2011,09,04,15,48,24.40
2011,09,04,15,49,24.50
2011,09,04,15,50,24.50
2011,09,04,15,51,24.50
2011,09,04,15,52,24.60
2011,09,04,15,53,24.60
2011,09,04,15,54,24.70
2011,09,04,15,55,24.70
2011,09,04,15,56,24.70
2011,09,04,15,57,24.70
2011,09,04,15,58,24.60
2011,09,04,15,59,24.60
2011,09,04,16,00,24.60
2011,09,04,16,01,24.60
2011,09,04,16,02,24.60
2011,09,04,16,03,24.60
2011,09,04,16,04,24.60
2011,09,04,16,05,24.60
2011,09,04,16,06,24.60
2011,09,04,16,07,24.50
2011,09,04,16,08,24.50
2011,09,04,16,09,24.50
2011,09,04,16,10,24.50
2011,09,04,16,11,24.60
2011,09,04,16,12,24.60
2011,09,04,16,13,24.50
2011,09,04,16,14,24.50
2011,09,04,16,15,24.50
2011,09,04,16,16,24.50
2011,09,04,16,17,24.40
2011,09,04,16,18,24.40
2011,09,04,16,19,24.30
2011,09,04,16,20,24.30
2011,09,04,16,21,24.20
2011,09,04,16,22,24.20
2011,09,04,16,23,24.20
2011,09,04,16,24,24.30
2011,09,04,16,25,24.30
2011,09,04,16,26,24.30
2011,09,04,16,27,24.40
2011,09,04,16,28,24.50
2011,09,04,16,29,24.50
2011,09,04,16,30,24.60
2011,09,04,16,31,24.60
2011,09,04,16,32,24.70
2011,09,04,16,33,24.70
2011,09,04,16,34,24.80
2011,09,04,16,35,24.80
2011,09,04,16,36,24.80
2011,09,04,16,37,24.80
2011,09,04,16,38,24.80
2011,09,04,16,39,24.80
2011,09,04,16,40,24.80
2011,09,04,16,41,24.80
2011,09,04,16,42,24.80
2011,09,04,16,43,24.80
2011,09,04,16,44,24.80
2011,09,04,16,45,24.80
2011,09,04,16,46,24.80
2011,09,04,16,47,24.80
2011,09,04,16,48,24.80
2011,09,04,16,49,24.80
2011,09,04,16,50,24.80
2011,09,04,16,51,24.80
2011,09,04,16,52,24.80
2011,09,04,16,53,24.80
2011,09,04,16,54,24.80
2011,09,04,16,55,24.90
2011,09,04,16,56,24.90
2011,09,04,16,57,24.90
2011,09,04,16,58,24.90
2011,09,04,16,59,24.90
2011,09,04,17,00,25.00
2011,09,04,17,01,25.00
2011,09,04,17,02,25.00
2011,09,04,17,03,25.00
2011,09,04,17,04,25.10
2011,09,04,17,05,25.20
2011,09,04,17,06,25.20
2011,09,04,17,07,25.20
2011,09,04,17,08,25.20
2011,09,04,17,09,25.30
2011,09,04,17,10,25.30
2011,09,04,17,11,25.30
2011,09,04,17,12,25.30
2011,09,04,17,13,25.30
2011,09,04,17,14,25.30
2011,09,04,17,15,25.30
2011,09,04,17,16,25.30
2011,09,04,17,17,25.30
2011,09,04,17,18,25.30
2011,09,04,17,19,25.30
2011,09,04,17,20,25.30
2011,09,04,17,21,25.30
2011,09,04,17,22,25.30
2011,09,04,17,23,25.30
2011,09,04,17,24,25.40